Torna al catalogo

CZ-2D DEB

AttivoSSO
NORAD 47975·DEBRIS·🇨🇳 China

Lanciato Sep 25, 2019 da Jiuquan Satellite Launch Center

Loading…

Prossimi Passaggi (prossime 24 ore)

TLE

AggiornatoSource: Space-Track

Epoca: Sep 13, 2026, 09:17 UTC

1 47975U 19063E   26256.38694696  .00000269  00000-0  10551-3 0  9995
2 47975  98.4530 313.6655 0006362 239.5429 120.5130 14.36951930299051

Traccia CZ-2D DEB in tempo reale con AllMySat

Download on the App Store